Regional Weather Roundup
Issued by NWS

Home | Current Version | Previous Version | Text Only | Print | Product List | Glossary Off
Versions: 1 2 3 4 5 6 7 8 9 10 11 12 13 14 15 16 17 18 19 20 21 22 23 24 25 26 27 28 29 30 31 32 33 34 35 36 37 38 39 40 41 42 43 44 45 46 47 48 49 50

025
ASUS45 KSLC 270810
RWRUT

UTAH REGIONAL WEATHER ROUNDUP
NATIONAL WEATHER SERVICE SALT LAKE CITY UT
200 AM MDT SAT MAY 27 2017

UTZ001>011-023>025-270900-

NORTHERN UTAH

CITY           SKY/WX    TMP DP  RH WIND       PRES   REMARKS
BRIGHAM CITY   CLEAR     47  36  65 SW7       30.11R
HILL AFB       CLEAR     46  35  65 CALM      30.10R
LOGAN          CLEAR     46  39  76 CALM      30.12R
OGDEN          CLEAR     47  36  65 CALM      30.09R
SALT LAKE CITY CLEAR     50  41  71 W6        30.09R
TOOELE VALLEY  CLEAR     43  39  87 S3        30.11S
WENDOVER       CLEAR     54  37  52 CALM      30.13
HEBER CITY     PTCLDY    39  30  70 E7        30.08S WCI  34
WEST JORDAN    CLEAR     47  42  82 NW10      30.11S

$$

UTZ011>015-024>027-270900-

CENTRAL/NORTHEAST UTAH

CITY           SKY/WX    TMP DP  RH WIND       PRES   REMARKS
PROVO AIRPORT  MOCLDY    52  39  61 N9        30.08S
MOAB/CANYONLAN PTCLDY    59  26  28 N7        29.95R
DELTA          CLOUDY    54  34  47 N3        30.09S
PRICE          CLOUDY    54  27  35 NW9G17    30.05R
ROOSEVELT      CLOUDY    55  27  33 NW10G22   30.01S
VERNAL         CLOUDY    53  39  59 SE6       30.04R

$$

UTZ013>016-019>022-027-270900-

SOUTHERN UTAH

CITY           SKY/WX    TMP DP  RH WIND       PRES   REMARKS
BRYCE CANYON   CLEAR     42  30  62 NW6       30.14R
CEDAR CITY     CLEAR     51  31  46 N8        30.07R
MILFORD        PTCLDY    53  33  46 N12       30.08R
ST GEORGE      MOSUNNY   72  36  26 NE20G28   29.89R
HANKSVILLE     MOCLDY    63  30  29 NW14G25   30.01R
BLANDING       CLEAR     58  22  25 NW9       30.06S

$$

REGIONAL REPORTS     COLORADO/ARIZONA

CITY           SKY/WX    TMP DP  RH WIND       PRES   REMARKS
CRAIG, CO      LGT RAIN  43  39  86 S7        30.12R
GRAND JUNCTION CLEAR     60  38  43 NE10      29.95R
RIFLE, CO      PTCLDY    55  40  56 NW17G26   30.01R
MONTROSE, CO   CLEAR     58  19  22 N3        29.97R
CORTEZ, CO     PTCLDY    59  23  25 S13       30.01R
COLORADO CITY    N/A     50  25  37 CALM      30.03R
PAGE, AZ       CLEAR     70  18  13 NW3       29.94R
GRAND CANYON   CLEAR     39  26  59 CALM      30.13R
KINGMAN, AZ    CLEAR     59  23  25 S7        29.94S
FLAGSTAFF, AZ  CLEAR     37  20  50 CALM      30.15S

$$

REGIONAL REPORTS    NEVADA/IDAHO/WYOMING

CITY           SKY/WX    TMP DP  RH WIND       PRES   REMARKS
LAS VEGAS, NV  CLEAR     78  21  12 SW13      29.81R
ELY, NY        PTCLDY    40  23  50 W5        30.15R
ELKO, NV       CLEAR     41  34  76 SW5       30.13S
POCATELLO, ID  CLEAR     39  39 100 E3        30.13R
BURLEY, ID     CLEAR     40  38  93 SW5       30.11R
FORT BRIDGER,  CLOUDY    39  32  75 W5        30.16R
EVANSTON, WY   CLEAR     35  31  85 NW6       30.13R WCI  30
ROCK SPRINGS,  CLOUDY    37  34  89 NE6       30.09R WCI  32
KEMMERER, WY     N/A     36  32  87 SW6       30.12S WCI  31

$$




USA.gov is the U.S. government's official web portal to all federal, state and local government web resources and services.